Weather History for Bradford, PA

Change the Weather History Date:

Monday, December 10, 2012

  Actual Average Record
Temperature  
Mean Temperature 46 °F 27 °F  
Max Temperature 55 °F 34 °F 57 °F (1966)
Min Temperature 37 °F 20 °F -16 °F (1968)
Degree Days  
Heating Degree Days 19 33  
Month to date heating degree days 313  
Since 1 July heating degree days 2148  
Cooling Degree Days 0 0  
Month to date cooling degree days 0  
Year to date cooling degree days 193  
Moisture  
Dew Point 40 °F    
Average Humidity 79    
Maximum Humidity 83    
Minimum Humidity 75    
Precipitation  
Precipitation 0.77 in 0.12 in 1.41 in (1992)
Month to date precipitation 1.18  
Year to date precipitation 42.24  
Sea Level Pressure  
Sea Level Pressure 29.61 in    
Wind  
Wind Speed 9 mph (West)    
Max Wind Speed 14 mph    
Max Gust Speed 18 mph    
Visibility 6 miles    
Events Rain , Snow    
T = Trace of Precipitation, MM = Missing Value Source: NWS Daily Summary

Daily Weather History Graph

Daily Weather History Graph

Search for Another Location

Airport:

Trip Planner

Search our weather history database for the weather conditions in past years. The results will help you decide how hot, cold, wet, or windy it might be!

Date:

Astronomy

Dec. 10, 2012 Rise Set
Actual Time 7:31 AM EST 4:43 PM EST
Civil Twilight 6:59 AM EST 5:15 PM EST
Nautical Twilight 6:24 AM EST 5:50 PM EST
Astronomical Twilight 5:51 AM EST 6:23 PM EST
Moon 4:10 AM EST (12/10) 2:33 PM EST (12/10)
Length of Visible Light 10h 15m
Length of Day
9h 12m
Waning Crescent, 10% of the Moon is Illuminated
Dec 10
Waning Crescent
Dec 13
New
Dec 20
First Quarter
Dec 28
Full
Jan 4
Last Quarter

Hourly Weather History & Observations

Time (EST) Temp. Windchill Dew Point Humidity Pressure Visibility Wind Dir Wind Speed Gust Speed Precip Events Conditions
12:53 AM 45.0 °F 38.9 °F 39.0 °F 80% 29.76 in 5.0 mi SSE 12.7 mph - 0.03 in Rain Light Rain
1:53 AM 46.0 °F 41.4 °F 39.9 °F 79% 29.73 in 10.0 mi SE 9.2 mph 18.4 mph 0.04 in Rain Light Rain
2:53 AM 46.9 °F - 41.0 °F 80% 29.71 in 6.0 mi Variable 6.9 mph - 0.10 in Rain Light Rain
3:08 AM 46.9 °F - 41.0 °F 80% 29.68 in 7.0 mi SSE 8.1 mph - 0.01 in Rain Light Rain
3:53 AM 46.9 °F - 42.1 °F 83% 29.67 in 2.5 mi SSE 5.8 mph - 0.15 in Rain Heavy Rain
4:04 AM 46.9 °F - 42.1 °F 83% 29.64 in 3.0 mi Variable 4.6 mph - 0.04 in Rain Rain
4:26 AM 48.0 °F - 42.1 °F 80% 29.64 in 2.5 mi Variable 4.6 mph - 0.13 in Rain Heavy Rain
4:36 AM 46.9 °F - 42.1 °F 83% 29.61 in 4.0 mi SE 8.1 mph - 0.15 in Rain Light Rain
4:46 AM 48.0 °F - 42.1 °F 80% 29.63 in 8.0 mi SSE 8.1 mph - 0.15 in Rain Light Rain
4:53 AM 48.9 °F - 43.0 °F 80% 29.64 in 8.0 mi SSE 6.9 mph - 0.16 in Rain Light Rain
5:14 AM 48.9 °F - 43.0 °F 80% 29.62 in 7.0 mi SSE 5.8 mph - 0.01 in Rain Light Rain
5:53 AM 51.1 °F - 46.0 °F 83% 29.61 in 3.0 mi South 5.8 mph - 0.04 in Rain Rain
6:13 AM 52.0 °F - 46.0 °F 80% 29.61 in 9.0 mi South 8.1 mph - 0.00 in   Overcast
6:53 AM 54.0 °F - 46.9 °F 77% 29.62 in 10.0 mi SSW 8.1 mph 17.3 mph 0.00 in   Overcast
7:53 AM 55.0 °F - 48.0 °F 77% 29.61 in 10.0 mi SSW 8.1 mph - N/A   Overcast
8:27 AM 54.0 °F - 48.9 °F 83% 29.60 in 10.0 mi SSW 10.4 mph - N/A   Overcast
8:53 AM 55.0 °F - 48.9 °F 80% 29.60 in 4.0 mi Variable 5.8 mph 16.1 mph 0.00 in Rain Light Rain
9:39 AM 55.9 °F - 48.9 °F 77% 29.60 in 5.0 mi Variable 6.9 mph - 0.01 in Rain Light Rain
9:53 AM 55.9 °F - 48.9 °F 77% 29.60 in 3.0 mi SW 9.2 mph - 0.01 in Rain Light Rain
10:01 AM 55.9 °F - 50.0 °F 80% 29.59 in 2.0 mi SW 5.8 mph - 0.01 in Rain Light Rain
10:42 AM 55.9 °F - 48.9 °F 77% 29.59 in 4.0 mi SSW 10.4 mph - 0.02 in Rain Light Rain
10:53 AM 55.9 °F - 50.0 °F 80% 29.58 in 4.0 mi SSW 10.4 mph 16.1 mph 0.03 in Rain Light Rain
11:53 AM 55.9 °F - 50.0 °F 80% 29.55 in 5.0 mi SSW 9.2 mph - 0.00 in Rain Light Rain
12:28 PM 51.1 °F - 45.0 °F 80% 29.54 in 1.8 mi WNW 9.2 mph - 0.04 in Rain Rain
12:36 PM 51.1 °F - 45.0 °F 80% 29.54 in 2.0 mi WNW 13.8 mph - 0.06 in Rain Rain
12:45 PM 51.1 °F - 45.0 °F 80% 29.53 in 5.0 mi WNW 10.4 mph - 0.07 in Rain Light Rain
12:53 PM 50.0 °F - 45.0 °F 83% 29.54 in 5.0 mi WNW 10.4 mph - 0.08 in Rain Rain
1:10 PM 50.0 °F - 44.1 °F 80% 29.53 in 10.0 mi West 8.1 mph - 0.01 in Rain Light Rain
1:53 PM 48.0 °F - 43.0 °F 83% 29.54 in 5.0 mi WNW 12.7 mph - 0.01 in   Haze
2:03 PM 48.0 °F - 42.1 °F 80% 29.53 in 2.0 mi WNW 10.4 mph - N/A   Haze
2:10 PM 48.0 °F - 42.1 °F 80% 29.53 in 1.8 mi NW 9.2 mph - 0.00 in Rain Light Rain
2:17 PM 46.9 °F - 42.1 °F 83% 29.53 in 3.0 mi NW 10.4 mph - 0.00 in Rain Light Rain
2:32 PM 46.0 °F 40.2 °F 39.9 °F 79% 29.53 in 1.8 mi NW 12.7 mph - 0.00 in Rain Light Rain
2:49 PM 46.4 °F 42.9 °F 39.2 °F 76% 29.53 in 2.5 mi WNW 6.9 mph - 0.00 in Rain Light Rain
2:53 PM 46.0 °F 41.9 °F 39.9 °F 79% 29.55 in 3.0 mi WNW 8.1 mph - 0.00 in Rain Light Rain
3:13 PM 44.1 °F 39.0 °F 37.9 °F 79% 29.55 in 4.0 mi WNW 9.2 mph - 0.01 in Rain Light Rain
3:19 PM 44.1 °F 39.0 °F 37.9 °F 79% 29.55 in 7.0 mi WNW 9.2 mph - 0.02 in Rain Light Rain
3:49 PM 44.6 °F 39.7 °F 37.4 °F 76% 29.56 in 7.0 mi WNW 9.2 mph - 0.03 in Rain Light Rain
3:53 PM 44.1 °F 38.1 °F 37.0 °F 76% 29.56 in 7.0 mi NW 11.5 mph - 0.03 in Rain Light Rain
4:01 PM 43.0 °F 37.7 °F 37.0 °F 80% 29.56 in 10.0 mi NW 9.2 mph - 0.00 in Rain Light Rain
4:08 PM 43.0 °F 36.4 °F 37.0 °F 80% 29.56 in 10.0 mi NNW 12.7 mph - 0.00 in Rain Light Rain
4:41 PM 42.1 °F 36.1 °F 36.0 °F 79% 29.56 in 10.0 mi WNW 10.4 mph - 0.01 in Rain Light Rain
4:53 PM 42.1 °F 36.6 °F 35.1 °F 76% 29.59 in 10.0 mi WNW 9.2 mph - 0.01 in Rain Light Rain
5:13 PM 41.0 °F 34.7 °F 34.0 °F 76% 29.59 in 9.0 mi WNW 10.4 mph - 0.02 in Rain Light Rain
5:36 PM 39.9 °F 33.4 °F 34.0 °F 79% 29.60 in 10.0 mi WNW 10.4 mph - 0.03 in Rain Light Rain
5:53 PM 39.9 °F 35.1 °F 34.0 °F 79% 29.62 in 10.0 mi WNW 6.9 mph - 0.03 in Rain Light Rain
6:53 PM 37.9 °F 32.7 °F 33.1 °F 83% 29.63 in 10.0 mi NW 6.9 mph - 0.02 in Rain Light Rain
7:53 PM 37.9 °F 35.5 °F 33.1 °F 83% 29.65 in 6.0 mi WNW 3.5 mph - 0.01 in Snow Light Snow
8:36 PM 37.9 °F 33.5 °F 32.0 °F 79% 29.66 in 7.0 mi West 5.8 mph - 0.01 in Snow Light Snow
8:49 PM 37.4 °F 32.8 °F 32.0 °F 81% 29.64 in 4.0 mi WNW 5.8 mph - 0.01 in Snow Light Snow
8:53 PM 37.9 °F 33.5 °F 32.0 °F 79% 29.66 in 4.0 mi WNW 5.8 mph - 0.01 in Snow Light Snow
9:53 PM 37.9 °F 33.5 °F 30.9 °F 76% 29.66 in 10.0 mi WNW 5.8 mph - 0.01 in   Overcast
10:22 PM 37.0 °F 31.6 °F 30.9 °F 79% 29.66 in 10.0 mi West 6.9 mph - N/A   Overcast
10:35 PM 37.0 °F 32.4 °F 30.9 °F 79% 29.67 in 10.0 mi West 5.8 mph - N/A   Overcast
10:53 PM 37.0 °F 31.0 °F 30.9 °F 79% 29.68 in 10.0 mi WNW 8.1 mph - N/A   Unknown
11:19 PM 37.0 °F 30.4 °F 30.9 °F 79% 29.69 in 10.0 mi West 9.2 mph - N/A   Overcast
11:24 PM 37.0 °F 30.4 °F 30.9 °F 79% 29.68 in 10.0 mi WNW 9.2 mph - N/A   Overcast
11:35 PM 37.0 °F 31.0 °F 30.9 °F 79% 29.70 in 2.5 mi WNW 8.1 mph - 0.00 in Snow Light Snow
11:44 PM 37.0 °F 30.4 °F 30.9 °F 79% 29.71 in 1.8 mi WNW 9.2 mph - 0.00 in Snow Light Snow
11:48 PM 37.4 °F 30.3 °F 30.2 °F 75% 29.71 in 2.5 mi West 10.4 mph - 0.00 in Snow Light Snow
11:51 PM 37.4 °F 30.3 °F 30.2 °F 75% 29.71 in 3.0 mi West 10.4 mph - 0.00 in Snow Light Snow